This demonstration page uses our WeatherBlox Daily Observations layout. Learn more.

Left ArrowRight Arrow

39.51506, -84.39828

Hourly Observations for November 7, 2021

Temp ( °F °C ) Dew Point ( °F °C ) Humidity (%) Winds ( mph kmh ) Pressure ( in mb ) Visibility ( mi km ) Precip ( " mm )
12:15 am 00:15 Clear 31 -0.6 30 -1.1 96 96 Calm 30.27 1025 10 16 0.00 0.00
12:35 am 00:35 Clear 31 -0.6 30 -1 97 97 Calm 30.27 1025 10 16 0.00 0.00
12:55 am 00:55 Clear 30 -1.3 28 -2.1 94 94 Calm 30.28 1025 10 16 0.00 0.00
1:15 am 01:15 Clear 31 -0.7 30 -1.3 96 96 Calm 30.27 1025 10 16 0.00 0.00
1:35 am 01:35 Clear 31 -0.8 29 -1.4 96 96 W 3 6 30.27 1025 10 16 0.00 0.00
1:55 am 01:55 Clear 30 -1.3 28 -2 95 95 Calm 30.28 1025 10 16 0.00 0.00
1:15 am 01:15 Clear 31 -0.8 29 -1.6 94 94 W 3 6 30.27 1025 10 16 0.00 0.00
1:35 am 01:35 Clear 30 -1.2 29 -1.7 96 96 Calm 30.27 1025 7 11 0.00 0.00
1:55 am 01:55 Clear 29 -1.4 29 -1.8 97 97 Calm 30.27 1025 7 11 0.00 0.00
2:15 am 02:15 Clear with Mist and Fog 30 -0.9 30 -1.1 99 99 Calm 30.27 1025 5 8 0.00 0.00
2:35 am 02:35 Clear with Mist and Fog 30 -1.3 29 -1.5 99 99 Calm 30.27 1025 5 8 0.00 0.00
2:55 am 02:55 Clear with Mist and Fog 30 -1.2 29 -1.6 97 97 Calm 30.27 1025 5 8 0.00 0.00
3:15 am 03:15 Clear with Mist and Fog 29 -1.9 28 -2.2 98 98 Calm 30.27 1025 4 6 0.00 0.00
3:35 am 03:35 Clear with Mist and Fog 28 -2.2 28 -2.5 98 98 Calm 30.27 1025 5 8 0.00 0.00
3:55 am 03:55 Clear with Mist and Fog 28 -2.4 27 -2.7 98 98 Calm 30.27 1025 5 8 0.00 0.00
4:15 am 04:15 Clear with Mist and Fog 29 -1.7 29 -1.9 99 99 Calm 30.27 1025 5 8 0.00 0.00
4:35 am 04:35 Clear with Mist and Fog 28 -2.3 28 -2.5 99 99 W 3 6 30.27 1025 5 8 0.00 0.00
4:55 am 04:55 Clear with Mist and Fog 28 -2.2 28 -2.5 98 98 Calm 30.28 1025 5 8 0.00 0.00
5:15 am 05:15 Clear with Mist and Fog 28 -2.3 28 -2.5 99 99 Calm 30.29 1026 5 8 0.00 0.00
5:35 am 05:35 Clear with Mist and Fog 29 -1.7 28 -2 98 98 E 3 6 30.29 1026 7 11 0.00 0.00
5:55 am 05:55 Clear with Mist and Fog 28 -2.2 28 -2.5 98 98 Calm 30.30 1026 5 8 0.00 0.00
6:15 am 06:15 Clear with Mist and Fog 29 -1.9 28 -2.1 99 99 Calm 30.30 1026 5 8 0.00 0.00
6:35 am 06:35 Clear with Mist and Fog 27 -2.6 27 -2.9 98 98 Calm 30.30 1026 5 8 0.00 0.00
6:55 am 06:55 Clear with Mist and Fog 28 -2.2 28 -2.5 98 98 Calm 30.30 1026 4 6 0.00 0.00
7:15 am 07:15 Mostly Cloudy with Mist and Fog 26 -3.2 26 -3.5 98 98 Calm 30.31 1027 1 2 0.00 0.00
7:35 am 07:35 Sunny with Mist and Fog 27 -2.9 26 -3.2 98 98 Calm 30.32 1027 4 6 0.00 0.00
7:55 am 07:55 Sunny with Mist and Fog 28 -2.1 28 -2.3 99 99 Calm 30.32 1027 5 8 0.00 0.00
8:15 am 08:15 Sunny with Mist and Fog 30 -0.9 30 -1.1 99 99 Calm 30.32 1027 4 6 0.00 0.00
8:35 am 08:35 Sunny with Mist and Fog 32 -0.2 31 -0.5 98 98 Calm 30.33 1027 4 6 0.00 0.00
8:55 am 08:55 Sunny with Mist and Fog 34 1.2 33 0.3 94 94 Calm 30.32 1027 7 11 0.00 0.00
9:15 am 09:15 Sunny with Mist and Fog 37 2.6 34 0.9 89 89 S 3 6 30.32 1027 7 11 0.00 0.00
9:35 am 09:35 Sunny 40 4.3 34 1 79 79 Calm 30.31 1027 10 16 0.00 0.00
9:55 am 09:55 Sunny 42 5.8 34 1.2 73 73 S 3 6 30.31 1026 10 16 0.00 0.00
10:15 am 10:15 Sunny 45 7 35 1.7 69 69 S 3 6 30.31 1026 10 16 0.00 0.00
10:35 am 10:35 Sunny 47 8.3 35 1.7 63 63 S 3 6 30.30 1026 10 16 0.00 0.00
10:55 am 10:55 Sunny 50 10 36 2.3 59 59 SSW 5 7 30.29 1026 10 16 0.00 0.00
11:15 am 11:15 Sunny 52 10.9 36 2.1 55 55 SSW 6 9 30.29 1026 10 16 0.00 0.00
11:35 am 11:35 Sunny 54 12 35 1.9 50 50 SSW 6 9 30.27 1025 10 16 0.00 0.00
11:55 am 11:55 Sunny 55 13 35 1.4 45 45 SSW 6 9 30.27 1025 10 16 0.00 0.00
12:15 pm 12:15 Sunny 57 14.1 34 1.2 42 42 SSW 7 11 30.26 1025 10 16 0.00 0.00
12:35 pm 12:35 Sunny 58 14.7 33 0.7 39 39 SSW 6 9 30.26 1025 10 16 0.00 0.00
12:55 pm 12:55 Sunny 59 15.1 33 0.8 38 38 SSW 8 13 30.25 1024 10 16 0.00 0.00
1:15 pm 13:15 Sunny 60 15.7 33 0.4 36 36 WSW 7 11 30.24 1024 10 16 0.00 0.00
1:35 pm 13:35 Sunny 60 15.6 33 0.4 36 36 SSW 6 9 30.24 1024 10 16 0.00 0.00
1:55 pm 13:55 Sunny 60 15.7 34 0.9 37 37 SSW 7 11 30.22 1024 10 16 0.00 0.00
2:15 pm 14:15 Sunny 61 16.2 35 1.4 37 37 SSW 7 11 30.21 1023 10 16 0.00 0.00
2:35 pm 14:35 Sunny 61 16.3 34 1.1 36 36 S 6 9 30.20 1023 10 16 0.00 0.00
2:55 pm 14:55 Sunny 62 16.5 34 0.9 35 35 SSW 7 11 30.21 1023 10 16 0.00 0.00
3:15 pm 15:15 Sunny 62 16.6 35 1.7 37 37 SSW 9 15 30.20 1023 10 16 0.00 0.00
3:35 pm 15:35 Sunny 62 16.6 34 1.3 36 36 SSW 8 13 30.20 1023 10 16 0.00 0.00
3:55 pm 15:55 Sunny 62 16.4 34 0.9 35 35 SSW 6 9 30.21 1023 10 16 0.00 0.00
4:15 pm 16:15 Sunny 61 16.1 33 0.4 35 35 SSW 8 13 30.20 1023 10 16 0.00 0.00
4:35 pm 16:35 Sunny 60 15.4 34 1 38 38 SSW 7 11 30.21 1023 10 16 0.00 0.00
4:55 pm 16:55 Sunny 57 14 34 1.3 42 42 SSW 6 9 30.21 1023 10 16 0.00 0.00
5:15 pm 17:15 Sunny 56 13.3 33 0.8 43 43 SSW 6 9 30.21 1023 10 16 0.00 0.00
5:35 pm 17:35 Clear 51 10.8 37 2.7 58 58 Calm 30.22 1023 10 16 0.00 0.00
5:55 pm 17:55 Clear 47 8.6 38 3.1 69 69 Calm 30.23 1024 10 16 0.00 0.00
6:15 pm 18:15 Clear 47 8.2 40 4.2 76 76 NNW 3 6 30.24 1024 10 16 0.00 0.00
6:35 pm 18:35 Clear 43 6.3 38 3.4 82 82 Calm 30.26 1025 10 16 0.00 0.00
6:55 pm 18:55 Clear 43 5.9 38 3.1 82 82 Calm 30.26 1025 10 16 0.00 0.00
7:15 pm 19:15 Clear 43 6.3 38 3.6 83 83 NNW 3 6 30.26 1025 10 16 0.00 0.00
7:35 pm 19:35 Clear 42 5.3 38 3.4 88 88 Calm 30.26 1025 10 16 0.00 0.00
7:55 pm 19:55 Clear 40 4.3 38 3.1 92 92 Calm 30.26 1025 10 16 0.00 0.00
8:15 pm 20:15 Clear 42 5.5 38 3.1 85 85 Calm 30.26 1025 10 16 0.00 0.00
8:35 pm 20:35 Clear 40 4.2 38 3.1 93 93 Calm 30.26 1025 10 16 0.00 0.00
8:55 pm 20:55 Clear 40 4.3 37 3 91 91 Calm 30.25 1025 10 16 0.00 0.00
9:15 pm 21:15 Clear 39 4.1 37 2.8 91 91 Calm 30.25 1025 10 16 0.00 0.00
9:35 pm 21:35 Clear 38 3.1 36 2.4 95 95 Calm 30.27 1025 10 16 0.00 0.00
9:55 pm 21:55 Clear 38 3.3 37 2.8 97 97 Calm 30.26 1025 10 16 0.00 0.00
10:15 pm 22:15 Clear 37 2.8 36 2.1 95 95 Calm 30.26 1025 10 16 0.00 0.00
10:35 pm 22:35 Clear 36 2.2 35 1.7 97 97 Calm 30.26 1025 10 16 0.00 0.00
10:55 pm 22:55 Clear 37 2.5 36 2.1 97 97 Calm 30.26 1025 10 16 0.00 0.00
11:15 pm 23:15 Clear 36 2.3 36 2 98 98 Calm 30.26 1025 10 16 0.00 0.00
11:35 pm 23:35 Clear 36 2 35 1.8 99 99 Calm 30.26 1025 10 16 0.00 0.00
11:55 pm 23:55 Clear 35 1.5 34 1.3 99 99 Calm 30.26 1025 10 16 0.00 0.00

Powered by AerisWeather